Showing default

LUR-1, 60506

Orbit data source: Space-Track

LUR-1, 60506 is a Spanish payload satellite in SSO that was launched on Fri, 16 Aug 2024 UTC via an FALCON 9 launch vehicle from the Air Force Western Test Range (AFWTR). Payload-class satellites include a variety of spacecraft equipped with specific instruments for various scientific and technological missions. These include communications satellites like Starlink; space stations such as the ISS; scientific satellites like the Hubble; Earth observation satellites from companies like Planet Labs, Umbra, and HawkEye 360; GPS; miniature CubeSats for education and research; and military/defense satellites.

Loading next visibility...
Identifier
60506, 2024-149AQ
Orbit
SSO
Country
Flag of ESES / SPN
Related business
Manufacturer
AVS
Mission
Operational Commercial Imaging
Bus & Motor
LUR, Unknown motor
Mass
57 kg wet, 57 kg dry
Launch date (UTC)
2024-08-16 (2 years ago)
Launch vehicle
FALCON 9
Launch site
Air Force Western Test Range (AFWTR)
Object type
Payload
Rocket body
Debris
Shape & HBR
Box, 0.3 m
Radar Cross Section
0.275 m², Medium (>0.1 m² and < 1m²)

Expand to show TLE details & history
Last TLE update: 15 hours ago

TLE from 15 hours ago
0 LUR-1
1 60506U 24149AQ  26175.17559986  .00005988  00000-0  20767-3 0  9993
2 60506  97.3739 253.9535 0002480 281.0134  79.0827 15.30182125103041
Epoch: 2026-06-24T04:12Z
TLE epoch observation values (Epoch: 2026-06-24T04:12:51.827Z)
Latitude
-0.00012°
Longitude
-81.59901°
Altitude
478.052 km
Speed
7.627 km/s
True Right ascension
16h 55m 48s
True Declination
0° 00' 00"
Sunlit
Object was in full shadow at epoch
Visualization orbit readout
Latitude
Unknown
Longitude
Unknown
Altitude
Unknown
Speed
Unknown
Apparent Right ascension
Unknown
Apparent Declination
Unknown
Sunlit
N/A
Visualization observer readout
Local Sidereal Time
05:55:48
Azimuth
Unknown
Elevation
Unknown
Doppler factor
Unknown
Orbital elements
Apogee altitude
473.918 km
Perigee altitude
470.52 km
Semi-major axis
6,850.356 km
Eccentricity
0.00025
Inclination
97.3739°
RAAN
253.9535°
Arg. of periapsis
281.0134°
True anomaly
79.11061°
Mean anomaly
79.0827°
Eccentric anomaly
79.09665°
Mean motion
3.82801 °/min
Orbital period
94.04 mins
BSTAR
0.00020767
Loading maneuver chart data...
Computing Atmospheric mass density...
Loading historical data...
Loading historical data...
Loading historical data...
Loading historical data...
Loading historical data...
Loading historical data...
Loading historical data...

Documentation

Showing up to 5 results
|